Location: Kumla
(59.1265°N, 15.1401°E)
Time: 17:15:17
(UTC+01:00)

Transit 2A - Pass Details

Date: 09 December 2023
Orbit: 600 x 953 km, 66.7° (Epoch: 21 February)

Event Time Altitude Azimuth Distance (km) Brightness Sun altitude
Rises 22:17:55 0° 310° (NW) 2,886 - -50.1°
Reaches altitude 10° 22:20:13 10° 307° (NW) 1,962 - -50.3°
Maximum altitude 22:24:30 58° 229° (SW) 707 - -50.6°
Drops below altitude 10° 22:28:47 10° 150° (SSE) 1,967 - -50.9°
Sets 22:31:06 0° 147° (SSE) 2,894 - -51.0°
